When you browse on this site, cookies collect data to enhance your experience and personalize the content and advertising you see.
Visit our Privacy Policy to learn more. By continuing to use the site, you agree to this use of cookies and data.
  • In Lithuania
  • List of Countries
  • For 7 days
  • Water Temperature
  • Weather Map
  • Weather Widgets
  • user-avatar
    Login

    Hourly Weather Hurghada

    Today, 7 April, Tuesday

    Time Temperature Precipitation Wind Pressure Humidity
    00:00 +19°C° 0 mm 2 mps 682 mmHg 30%
    01:00 +20°C° 0 mm 1 mps 682 mmHg 31%
    02:00 +18°C° 0 mm 2 mps 681 mmHg 32%
    03:00 +17°C° 0 mm 2 mps 681 mmHg 35%
    04:00 +17°C° 0 mm 2 mps 681 mmHg 38%
    05:00 +16°C° 0 mm 2 mps 681 mmHg 41%
    06:00 +18°C° 0 mm 2 mps 682 mmHg 37%
    07:00 +19°C° 0 mm 2 mps 682 mmHg 33%
    08:00 +21°C° 0 mm 3 mps 683 mmHg 29%
    09:00 +24°C° 0 mm 3 mps 683 mmHg 26%
    10:00 +25°C° 0 mm 4 mps 684 mmHg 22%
    11:00 +27°C° 0 mm 5 mps 684 mmHg 18%
    12:00 +28°C° 0 mm 5 mps 684 mmHg 17%
    13:00 +28°C° 0 mm 6 mps 683 mmHg 16%
    14:00 +28°C° 0 mm 6 mps 683 mmHg 15%
    15:00 +27°C° 0 mm 6 mps 683 mmHg 16%
    16:00 +26°C° 0 mm 6 mps 682 mmHg 16%
    17:00 +24°C° 0 mm 6 mps 682 mmHg 17%
    18:00 +22°C° 0 mm 5 mps 682 mmHg 20%
    19:00 +20°C° 0 mm 4 mps 682 mmHg 23%
    20:00 +19°C° 0 mm 3 mps 682 mmHg 26%
    21:00 +18°C° 0 mm 3 mps 682 mmHg 27%
    22:00 +18°C° 0 mm 3 mps 682 mmHg 27%
    23:00 +17°C° 0 mm 3 mps 682 mmHg 28%

    Tomorrow, 8 April, Wednesday

    Time Temperature Precipitation Wind Pressure Humidity
    00:00 +17°C° 0 mm 3 mps 682 mmHg 28%
    01:00 +16°C° 0 mm 3 mps 682 mmHg 29%
    02:00 +16°C° 0 mm 3 mps 681 mmHg 30%
    03:00 +14°C° 0 mm 3 mps 681 mmHg 33%
    04:00 +13°C° 0 mm 3 mps 681 mmHg 35%
    05:00 +13°C° 0 mm 3 mps 681 mmHg 38%
    06:00 +14°C° 0 mm 3 mps 682 mmHg 35%
    07:00 +15°C° 0 mm 4 mps 682 mmHg 32%
    08:00 +17°C° 0 mm 4 mps 683 mmHg 29%
    09:00 +19°C° 0 mm 4 mps 683 mmHg 24%
    10:00 +21°C° 0 mm 4 mps 683 mmHg 20%
    11:00 +23°C° 0 mm 4 mps 684 mmHg 16%
    12:00 +23°C° 0 mm 5 mps 683 mmHg 15%
    13:00 +25°C° 0 mm 5 mps 683 mmHg 14%
    14:00 +26°C° 0 mm 6 mps 683 mmHg 13%
    15:00 +24°C° 0 mm 6 mps 683 mmHg 14%
    16:00 +24°C° 0 mm 6 mps 682 mmHg 15%
    17:00 +23°C° 0 mm 6 mps 682 mmHg 16%
    18:00 +21°C° 0 mm 5 mps 682 mmHg 21%
    19:00 +19°C° 0 mm 4 mps 682 mmHg 26%
    20:00 +17°C° 0 mm 3 mps 682 mmHg 31%
    21:00 +16°C° 0 mm 3 mps 682 mmHg 32%
    22:00 +16°C° 0 mm 3 mps 682 mmHg 33%
    23:00 +16°C° 0 mm 2 mps 682 mmHg 33%

    Day after tomorrow, 9 April, Thursday

    Time Temperature Precipitation Wind Pressure Humidity
    00:00 +15°C° 0 mm 2 mps 681 mmHg 34%
    01:00 +15°C° 0 mm 2 mps 681 mmHg 34%
    02:00 +14°C° 0 mm 2 mps 681 mmHg 34%
    03:00 +14°C° 0 mm 2 mps 680 mmHg 36%
    04:00 +14°C° 0 mm 2 mps 680 mmHg 37%
    05:00 +13°C° 0 mm 2 mps 680 mmHg 38%
    06:00 +15°C° 0 mm 2 mps 681 mmHg 35%
    07:00 +16°C° 0 mm 3 mps 682 mmHg 31%
    08:00 +18°C° 0 mm 3 mps 682 mmHg 28%
    09:00 +19°C° 0 mm 4 mps 683 mmHg 25%
    10:00 +21°C° 0 mm 4 mps 683 mmHg 22%
    11:00 +22°C° 0 mm 5 mps 683 mmHg 18%
    12:00 +23°C° 0 mm 5 mps 683 mmHg 17%
    13:00 +25°C° 0 mm 5 mps 683 mmHg 16%
    14:00 +24°C° 0 mm 6 mps 682 mmHg 16%
    15:00 +24°C° 0 mm 6 mps 682 mmHg 17%
    16:00 +23°C° 0 mm 6 mps 682 mmHg 19%
    17:00 +22°C° 0 mm 6 mps 682 mmHg 21%
    18:00 +21°C° 0 mm 5 mps 682 mmHg 24%
    19:00 +19°C° 0 mm 4 mps 682 mmHg 28%
    20:00 +18°C° 0 mm 4 mps 682 mmHg 31%
    21:00 +17°C° 0 mm 3 mps 682 mmHg 33%
    22:00 +16°C° 0 mm 3 mps 681 mmHg 36%
    23:00 +16°C° 0 mm 3 mps 681 mmHg 38%

    10 April, Friday

    Time Temperature Precipitation Wind Pressure Humidity
    00:00 +15°C° 0 mm 2 mps 681 mmHg 40%
    01:00 +15°C° 0 mm 2 mps 681 mmHg 42%
    02:00 +14°C° 0 mm 2 mps 680 mmHg 44%
    03:00 +13°C° 0 mm 2 mps 680 mmHg 47%
    04:00 +13°C° 0 mm 2 mps 680 mmHg 50%
    05:00 +12°C° 0 mm 2 mps 680 mmHg 53%
    06:00 +14°C° 0 mm 2 mps 681 mmHg 49%
    07:00 +14°C° 0 mm 3 mps 681 mmHg 45%
    08:00 +16°C° 0 mm 3 mps 682 mmHg 41%
    09:00 +18°C° 0 mm 4 mps 682 mmHg 35%
    10:00 +19°C° 0 mm 4 mps 683 mmHg 30%
    11:00 +20°C° 0 mm 5 mps 683 mmHg 25%
    12:00 +21°C° 0 mm 6 mps 683 mmHg 23%
    13:00 +22°C° 0 mm 7 mps 682 mmHg 21%
    14:00 +22°C° 0 mm 8 mps 682 mmHg 19%
    15:00 +21°C° 0 mm 8 mps 682 mmHg 21%
    16:00 +20°C° 0 mm 8 mps 682 mmHg 23%
    17:00 +18°C° 0 mm 8 mps 681 mmHg 26%
    18:00 +17°C° 0 mm 7 mps 681 mmHg 28%
    19:00 +16°C° 0 mm 7 mps 681 mmHg 31%
    20:00 +14°C° 0 mm 6 mps 682 mmHg 33%
    21:00 +14°C° 0 mm 5 mps 681 mmHg 34%
    22:00 +13°C° 0 mm 4 mps 681 mmHg 34%
    23:00 +12°C° 0 mm 3 mps 681 mmHg 35%

    11 April, Saturday

    Time Temperature Precipitation Wind Pressure Humidity
    00:00 +12°C° 0 mm 3 mps 681 mmHg 37%
    01:00 +11°C° 0 mm 3 mps 681 mmHg 39%
    02:00 +11°C° 0 mm 3 mps 681 mmHg 42%
    03:00 +10°C° 0 mm 2 mps 681 mmHg 46%
    04:00 +10°C° 0 mm 2 mps 681 mmHg 51%
    05:00 +9°C° 0 mm 2 mps 681 mmHg 55%
    06:00 +12°C° 0 mm 2 mps 682 mmHg 52%
    07:00 +12°C° 0 mm 3 mps 682 mmHg 48%
    08:00 +13°C° 0 mm 3 mps 683 mmHg 44%
    09:00 +16°C° 0 mm 3 mps 683 mmHg 39%
    10:00 +17°C° 0 mm 3 mps 683 mmHg 34%
    11:00 +18°C° 0 mm 3 mps 684 mmHg 29%
    12:00 +19°C° 0 mm 3 mps 683 mmHg 27%
    13:00 +20°C° 0 mm 4 mps 683 mmHg 24%
    14:00 +21°C° 0 mm 4 mps 683 mmHg 22%
    15:00 +21°C° 0 mm 4 mps 683 mmHg 25%
    16:00 +20°C° 0 mm 5 mps 683 mmHg 27%
    17:00 +19°C° 0 mm 5 mps 682 mmHg 30%
    18:00 +18°C° 0 mm 4 mps 682 mmHg 34%
    19:00 +16°C° 0 mm 3 mps 682 mmHg 38%
    20:00 +14°C° 0 mm 3 mps 682 mmHg 41%
    21:00 +15°C° 0 mm 2 mps 682 mmHg 44%
    22:00 +14°C° 0 mm 2 mps 682 mmHg 46%
    23:00 +14°C° 0 mm 2 mps 682 mmHg 49%

    12 April, Sunday

    Time Temperature Precipitation Wind Pressure Humidity
    00:00 +14°C° 0 mm 2 mps 682 mmHg 49%
    01:00 +13°C° 0 mm 2 mps 682 mmHg 49%
    02:00 +13°C° 0 mm 2 mps 681 mmHg 49%
    03:00 +12°C° 0 mm 2 mps 681 mmHg 50%
    04:00 +12°C° 0 mm 2 mps 681 mmHg 51%
    05:00 +12°C° 0 mm 2 mps 681 mmHg 51%
    06:00 +13°C° 0 mm 2 mps 682 mmHg 47%
    07:00 +15°C° 0 mm 2 mps 683 mmHg 42%
    08:00 +16°C° 0 mm 2 mps 683 mmHg 38%
    09:00 +18°C° 0 mm 2 mps 683 mmHg 33%
    10:00 +19°C° 0 mm 2 mps 684 mmHg 28%
    11:00 +20°C° 0 mm 3 mps 684 mmHg 23%
    12:00 +21°C° 0 mm 3 mps 684 mmHg 22%
    13:00 +22°C° 0 mm 4 mps 683 mmHg 20%
    14:00 +23°C° 0 mm 5 mps 683 mmHg 19%
    15:00 +23°C° 0 mm 5 mps 683 mmHg 21%
    16:00 +22°C° 0 mm 5 mps 682 mmHg 23%
    17:00 +21°C° 0 mm 5 mps 682 mmHg 25%
    18:00 +20°C° 0 mm 4 mps 682 mmHg 28%
    19:00 +18°C° 0 mm 3 mps 682 mmHg 31%
    20:00 +17°C° 0 mm 2 mps 682 mmHg 34%
    21:00 +16°C° 0 mm 2 mps 682 mmHg 35%
    22:00 +16°C° 0 mm 2 mps 682 mmHg 36%
    23:00 +15°C° 0 mm 2 mps 682 mmHg 37%
    Show more